AFL3500 ULLI-UWGG

Flight info

Callsign AFL3500
Flight time 1h 22m
Altitude 37000
Route SUGIN1A SUGIN T873 NIRGI T73 DESUD P164 GAKLU N869 RANTO T540 POGAS T747 OLATU T784 ADMUL L94 USTOK USTOK2P
Aircraft A321/M-SDE3FGHIRWY/LB1

Departure

Time 2026-04-25 12:53
Airport Pulkovo Airport (ULLI)

Arrival

Time 2026-04-25 14:15
Airport Nizhny Novgorod / Strigino International Airport (UWGG)
Time Latitude Longitude Altitude Speed Heading
2026-04-25 12:13 59.80152 30.26509 83 ft 0 kts 287°
2026-04-25 12:48 59.80154 30.26495 83 ft 3 kts 287°
2026-04-25 12:48 59.80163 30.26432 87 ft 7 kts 287°
2026-04-25 12:48 59.80210 30.26388 85 ft 10 kts 12°
2026-04-25 12:48 59.80290 30.26435 88 ft 14 kts 15°
2026-04-25 12:49 59.80401 30.26474 87 ft 17 kts 20°
2026-04-25 12:49 59.80420 30.26695 84 ft 21 kts 106°
2026-04-25 12:49 59.80374 30.27003 86 ft 26 kts 106°
2026-04-25 12:49 59.80317 30.27381 85 ft 31 kts 107°
2026-04-25 12:50 59.80248 30.27828 83 ft 36 kts 106°
2026-04-25 12:50 59.80179 30.28310 81 ft 31 kts 106°
2026-04-25 12:50 59.80168 30.28582 75 ft 16 kts 52°
2026-04-25 12:50 59.80226 30.28724 74 ft 14 kts 50°
2026-04-25 12:51 59.80294 30.28857 71 ft 14 kts 20°
2026-04-25 12:51 59.80350 30.28713 75 ft 7 kts 287°
2026-04-25 12:51 59.80350 30.28710 76 ft 0 kts 287°
2026-04-25 12:52 59.80364 30.28617 69 ft 27 kts 287°
2026-04-25 12:52 59.80490 30.27770 83 ft 97 kts 287°
2026-04-25 12:52 59.80739 30.26120 85 ft 150 kts 287°
2026-04-25 12:52 59.81096 30.23943 323 ft 172 kts 286°
2026-04-25 12:53 59.81444 30.21678 991 ft 170 kts 279°
2026-04-25 12:53 59.81773 30.19421 1609 ft 172 kts 278°
2026-04-25 12:53 59.82112 30.17014 1784 ft 190 kts 278°
2026-04-25 12:53 59.82486 30.14350 1914 ft 211 kts 278°
2026-04-25 12:54 59.82899 30.11466 2417 ft 217 kts 279°
2026-04-25 12:54 59.83313 30.08655 3161 ft 214 kts 279°
2026-04-25 12:54 59.83731 30.05831 4005 ft 212 kts 281°
2026-04-25 12:54 59.84144 30.03026 4805 ft 211 kts 281°
2026-04-25 12:55 59.84348 30.00186 5515 ft 207 kts 258°
2026-04-25 12:55 59.84019 29.98415 5934 ft 210 kts 237°
2026-04-25 12:55 59.82370 29.96245 6729 ft 226 kts 202°
2026-04-25 12:55 59.80849 29.95366 7372 ft 230 kts 202°
2026-04-25 12:56 59.79292 29.94495 8010 ft 234 kts 201°
2026-04-25 12:56 59.77712 29.93613 8648 ft 237 kts 201°
2026-04-25 12:56 59.76107 29.92729 9273 ft 242 kts 197°
2026-04-25 12:56 59.74391 29.92805 9818 ft 258 kts 165°
2026-04-25 12:57 59.72871 29.94882 10195 ft 283 kts 132°
2026-04-25 12:57 59.71908 29.98431 10342 ft 310 kts 114°
2026-04-25 12:57 59.71206 30.02629 10478 ft 333 kts 108°
2026-04-25 12:57 59.70608 30.07209 10610 ft 354 kts 106°
2026-04-25 12:58 59.70018 30.12081 10735 ft 373 kts 105°
2026-04-25 12:58 59.69597 30.17238 11108 ft 385 kts 94°
2026-04-25 12:58 59.69592 30.22583 11761 ft 389 kts 92°
2026-04-25 12:58 59.69540 30.27954 12459 ft 392 kts 94°
2026-04-25 12:59 59.69405 30.33357 13146 ft 394 kts 99°
2026-04-25 12:59 59.68889 30.38680 13737 ft 395 kts 105°
2026-04-25 12:59 59.68279 30.44009 14300 ft 398 kts 105°
2026-04-25 12:59 59.67687 30.49390 14851 ft 402 kts 104°
2026-04-25 13:00 59.67302 30.52990 15189 ft 404 kts 104°
2026-04-25 13:00 59.66920 30.56603 15521 ft 406 kts 104°
2026-04-25 13:00 59.65945 30.65815 16366 ft 411 kts 104°
2026-04-25 13:00 59.65366 30.71305 16861 ft 415 kts 103°
2026-04-25 13:01 59.64844 30.76937 17356 ft 418 kts 102°
2026-04-25 13:01 59.64376 30.82634 17812 ft 422 kts 101°
2026-04-25 13:01 59.63930 30.88406 18199 ft 426 kts 100°
2026-04-25 13:01 59.63484 30.94219 18610 ft 429 kts 101°
2026-04-25 13:02 59.63181 30.98100 18890 ft 431 kts 101°
2026-04-25 13:02 59.62706 31.03977 19306 ft 434 kts 101°
2026-04-25 13:02 59.62210 31.09895 19713 ft 437 kts 101°
2026-04-25 13:02 59.61532 31.17780 20244 ft 441 kts 102°
2026-04-25 13:03 59.61181 31.21829 20514 ft 444 kts 102°
2026-04-25 13:03 59.60655 31.27855 20935 ft 447 kts 102°
2026-04-25 13:03 59.60133 31.33844 21341 ft 450 kts 102°
2026-04-25 13:03 59.59603 31.39958 21786 ft 453 kts 102°
2026-04-25 13:04 59.59069 31.46104 22206 ft 457 kts 102°
2026-04-25 13:04 59.58524 31.52304 22571 ft 460 kts 102°
2026-04-25 13:04 59.57969 31.58562 22878 ft 465 kts 102°
2026-04-25 13:04 59.57406 31.64863 23209 ft 468 kts 102°
2026-04-25 13:05 59.56837 31.71214 23464 ft 472 kts 102°
2026-04-25 13:05 59.56262 31.77614 23760 ft 475 kts 102°
2026-04-25 13:05 59.55679 31.84051 24065 ft 478 kts 102°
2026-04-25 13:05 59.55086 31.90507 24373 ft 480 kts 102°
2026-04-25 13:06 59.54484 31.97014 24678 ft 483 kts 103°
2026-04-25 13:06 59.53666 32.03420 24959 ft 482 kts 111°
2026-04-25 13:06 59.52375 32.09501 25250 ft 480 kts 121°
2026-04-25 13:06 59.50650 32.15110 25507 ft 477 kts 130°
2026-04-25 13:07 59.48565 32.20080 25768 ft 474 kts 139°
2026-04-25 13:07 59.46231 32.24660 26033 ft 475 kts 140°
2026-04-25 13:07 59.43876 32.29246 26313 ft 478 kts 140°
2026-04-25 13:07 59.41510 32.33841 26593 ft 480 kts 140°
2026-04-25 13:08 59.39127 32.38456 26880 ft 482 kts 140°
2026-04-25 13:08 59.36728 32.43109 27167 ft 484 kts 140°
2026-04-25 13:08 59.34334 32.47757 27418 ft 486 kts 141°
2026-04-25 13:08 59.31966 32.52349 27802 ft 484 kts 141°
2026-04-25 13:09 59.29569 32.56981 28218 ft 482 kts 141°
2026-04-25 13:09 59.27177 32.61587 28568 ft 482 kts 141°
2026-04-25 13:09 59.24789 32.66177 28933 ft 481 kts 141°
2026-04-25 13:09 59.22402 32.70760 29287 ft 480 kts 141°
2026-04-25 13:10 59.20016 32.75330 29629 ft 480 kts 141°
2026-04-25 13:10 59.17628 32.79891 29916 ft 479 kts 141°
2026-04-25 13:10 59.15247 32.84424 30191 ft 479 kts 141°
2026-04-25 13:10 59.12858 32.88949 30474 ft 479 kts 141°
2026-04-25 13:11 59.10466 32.93475 30748 ft 479 kts 141°
2026-04-25 13:11 59.08108 32.97931 31023 ft 478 kts 141°
2026-04-25 13:11 59.05720 33.02441 31293 ft 478 kts 141°
2026-04-25 13:11 59.03332 33.06949 31562 ft 478 kts 140°
2026-04-25 13:12 59.00941 33.11457 31836 ft 478 kts 140°
2026-04-25 13:12 58.98552 33.15947 32105 ft 478 kts 140°
2026-04-25 13:12 58.96155 33.20430 32370 ft 477 kts 140°
2026-04-25 13:12 58.94573 33.23384 32544 ft 477 kts 140°
2026-04-25 13:13 58.91374 33.29345 32882 ft 477 kts 140°
2026-04-25 13:13 58.88981 33.33797 33127 ft 477 kts 140°
2026-04-25 13:13 58.86590 33.38238 33383 ft 477 kts 140°
2026-04-25 13:13 58.84194 33.42690 33616 ft 477 kts 140°
2026-04-25 13:14 58.81797 33.47126 33750 ft 478 kts 140°
2026-04-25 13:14 58.79393 33.51558 33903 ft 479 kts 140°
2026-04-25 13:14 58.76981 33.55997 34072 ft 479 kts 140°
2026-04-25 13:14 58.74570 33.60429 34244 ft 479 kts 140°
2026-04-25 13:15 58.72157 33.64869 34421 ft 480 kts 140°
2026-04-25 13:15 58.69770 33.69250 34589 ft 480 kts 140°
2026-04-25 13:15 58.67353 33.73674 34753 ft 480 kts 140°
2026-04-25 13:15 58.64925 33.78100 34923 ft 480 kts 140°
2026-04-25 13:16 58.62497 33.82521 35090 ft 480 kts 140°
2026-04-25 13:16 58.60069 33.86933 35220 ft 481 kts 140°
2026-04-25 13:16 58.57639 33.91338 35343 ft 481 kts 140°
2026-04-25 13:16 58.55201 33.95744 35501 ft 482 kts 140°
2026-04-25 13:17 58.52756 34.00149 35651 ft 482 kts 140°
2026-04-25 13:17 58.50317 34.04545 35798 ft 482 kts 140°
2026-04-25 13:17 58.47874 34.08945 35945 ft 482 kts 140°
2026-04-25 13:17 58.45432 34.13344 36100 ft 482 kts 140°
2026-04-25 13:18 58.42990 34.17736 36241 ft 482 kts 140°
2026-04-25 13:18 58.40539 34.22123 36369 ft 482 kts 140°
2026-04-25 13:18 58.38123 34.26430 36517 ft 482 kts 140°
2026-04-25 13:18 58.35671 34.30788 36556 ft 483 kts 140°
2026-04-25 13:19 58.30756 34.39504 36554 ft 483 kts 140°
2026-04-25 13:19 58.26635 34.46801 36562 ft 483 kts 140°
2026-04-25 13:20 58.20904 34.56894 36564 ft 483 kts 141°
2026-04-25 13:20 58.15870 34.65307 36573 ft 481 kts 143°
2026-04-25 13:21 58.10693 34.73350 36567 ft 481 kts 144°
2026-04-25 13:21 58.05537 34.81294 36599 ft 481 kts 144°
2026-04-25 13:22 58.00377 34.89373 36603 ft 482 kts 144°
2026-04-25 13:23 57.92665 35.01494 36611 ft 482 kts 144°
2026-04-25 13:23 57.87510 35.09538 36584 ft 482 kts 144°
2026-04-25 13:24 57.82340 35.17553 36602 ft 482 kts 144°
2026-04-25 13:24 57.77162 35.25538 36609 ft 482 kts 144°
2026-04-25 13:25 57.71980 35.33501 36627 ft 482 kts 144°
2026-04-25 13:25 57.66810 35.41425 36615 ft 481 kts 144°
2026-04-25 13:26 57.61864 35.49874 36625 ft 486 kts 131°
2026-04-25 13:26 57.58436 35.60704 36624 ft 491 kts 111°
2026-04-25 13:27 57.56096 35.72668 36621 ft 492 kts 111°
2026-04-25 13:27 57.53720 35.84647 36622 ft 492 kts 112°
2026-04-25 13:28 57.51317 35.96600 36617 ft 493 kts 111°
2026-04-25 13:28 57.48909 36.08559 36621 ft 493 kts 111°
2026-04-25 13:29 57.46532 36.20430 36634 ft 493 kts 111°
2026-04-25 13:29 57.44136 36.32374 36637 ft 493 kts 112°
2026-04-25 13:30 57.40506 36.50239 36635 ft 493 kts 111°
2026-04-25 13:31 57.36842 36.68077 36645 ft 493 kts 112°
2026-04-25 13:31 57.34405 36.79883 36670 ft 493 kts 112°
2026-04-25 13:32 57.31949 36.91750 36662 ft 493 kts 112°
2026-04-25 13:32 57.29478 37.03607 36643 ft 493 kts 112°
2026-04-25 13:33 57.26986 37.15458 36645 ft 493 kts 112°
2026-04-25 13:33 57.24505 37.27175 36648 ft 493 kts 112°
2026-04-25 13:34 57.21991 37.38968 36651 ft 493 kts 112°
2026-04-25 13:34 57.19475 37.50752 36651 ft 493 kts 110°
2026-04-25 13:35 57.18115 37.63087 36643 ft 492 kts 90°
2026-04-25 13:35 57.18986 37.75507 36643 ft 487 kts 70°
2026-04-25 13:36 57.21348 37.87183 36638 ft 486 kts 66°
2026-04-25 13:36 57.23746 37.98873 36640 ft 487 kts 67°
2026-04-25 13:37 57.26116 38.10531 36666 ft 488 kts 67°
2026-04-25 13:37 57.28492 38.22283 36659 ft 488 kts 67°
2026-04-25 13:38 57.30855 38.34063 36655 ft 488 kts 67°
2026-04-25 13:38 57.33215 38.45857 36658 ft 489 kts 67°
2026-04-25 13:39 57.35550 38.57613 36659 ft 489 kts 68°
2026-04-25 13:39 57.37874 38.69449 36675 ft 489 kts 68°
2026-04-25 13:40 57.39794 38.79292 36677 ft 488 kts 68°
2026-04-25 13:40 57.42491 38.93147 36677 ft 488 kts 68°
2026-04-25 13:41 57.44792 39.05018 36672 ft 488 kts 68°
2026-04-25 13:41 57.46940 39.16914 36670 ft 490 kts 76°
2026-04-25 13:42 57.47399 39.29534 36667 ft 492 kts 95°
2026-04-25 13:42 57.45885 39.41878 36681 ft 492 kts 107°
2026-04-25 13:43 57.43899 39.54058 36676 ft 492 kts 107°
2026-04-25 13:43 57.41917 39.66182 36672 ft 493 kts 107°
2026-04-25 13:44 57.39905 39.78366 36675 ft 493 kts 107°
2026-04-25 13:44 57.37878 39.90540 36678 ft 493 kts 107°
2026-04-25 13:45 57.35505 40.02348 36680 ft 491 kts 121°
2026-04-25 13:45 57.33581 40.07604 36673 ft 488 kts 132°
2026-04-25 13:45 57.31232 40.12054 36664 ft 484 kts 143°
2026-04-25 13:45 57.28496 40.15643 36656 ft 480 kts 154°
2026-04-25 13:46 57.25498 40.18232 36649 ft 475 kts 165°
2026-04-25 13:46 57.19230 40.21715 36657 ft 474 kts 167°
2026-04-25 13:47 57.12862 40.25183 36663 ft 475 kts 167°
2026-04-25 13:47 57.06536 40.28608 36653 ft 475 kts 167°
2026-04-25 13:48 57.00417 40.33213 36660 ft 482 kts 150°
2026-04-25 13:48 56.95339 40.41287 36670 ft 488 kts 132°
2026-04-25 13:49 56.90904 40.50663 36674 ft 489 kts 133°
2026-04-25 13:49 56.86412 40.59975 36679 ft 489 kts 133°
2026-04-25 13:50 56.81878 40.69288 36686 ft 489 kts 133°
2026-04-25 13:50 56.77358 40.78569 36683 ft 489 kts 133°
2026-04-25 13:51 56.72867 40.87818 36687 ft 489 kts 133°
2026-04-25 13:51 56.68347 40.97119 36687 ft 489 kts 133°
2026-04-25 13:51 56.66084 41.01739 36244 ft 492 kts 133°
2026-04-25 13:52 56.63775 41.06420 35289 ft 499 kts 134°
2026-04-25 13:52 56.61509 41.11124 34508 ft 503 kts 129°
2026-04-25 13:52 56.59399 41.16198 33761 ft 505 kts 128°
2026-04-25 13:52 56.57290 41.21315 32894 ft 506 kts 128°
2026-04-25 13:53 56.55170 41.26444 32011 ft 508 kts 128°
2026-04-25 13:53 56.53042 41.31578 31123 ft 509 kts 128°
2026-04-25 13:53 56.51628 41.34980 30563 ft 510 kts 128°
2026-04-25 13:53 56.49488 41.40124 29716 ft 512 kts 129°
2026-04-25 13:54 56.47342 41.45255 28746 ft 512 kts 128°
2026-04-25 13:54 56.45185 41.50401 27796 ft 512 kts 128°
2026-04-25 13:54 56.43031 41.55534 26864 ft 513 kts 128°
2026-04-25 13:54 56.40170 41.62324 25692 ft 512 kts 128°
2026-04-25 13:55 56.38711 41.65785 25113 ft 512 kts 128°
2026-04-25 13:55 56.36550 41.70911 24273 ft 512 kts 128°
2026-04-25 13:55 56.34420 41.75955 23474 ft 511 kts 128°
2026-04-25 13:55 56.32265 41.81049 22563 ft 510 kts 128°
2026-04-25 13:56 56.30112 41.86129 21633 ft 509 kts 128°
2026-04-25 13:56 56.27967 41.91178 20819 ft 505 kts 128°
2026-04-25 13:56 56.25841 41.96156 20128 ft 498 kts 128°
2026-04-25 13:56 56.23741 42.01060 19411 ft 493 kts 128°
2026-04-25 13:57 56.21798 42.06096 18728 ft 487 kts 120°
2026-04-25 13:57 56.20768 42.09646 18302 ft 482 kts 113°
2026-04-25 13:57 56.19353 42.17198 17347 ft 472 kts 101°
2026-04-25 13:57 56.18890 42.22898 16815 ft 461 kts 92°
2026-04-25 13:58 56.18610 42.28537 16543 ft 446 kts 93°
2026-04-25 13:58 56.18314 42.33995 16271 ft 432 kts 94°
2026-04-25 13:58 56.18011 42.39305 16005 ft 420 kts 94°
2026-04-25 13:58 56.17714 42.44447 15748 ft 410 kts 94°
2026-04-25 13:59 56.17425 42.49501 15484 ft 405 kts 94°
2026-04-25 13:59 56.17139 42.54529 15227 ft 403 kts 94°
2026-04-25 13:59 56.16856 42.59515 14969 ft 401 kts 94°
2026-04-25 13:59 56.16574 42.64491 14733 ft 400 kts 93°
2026-04-25 14:00 56.16387 42.67785 14568 ft 399 kts 93°
2026-04-25 14:00 56.16010 42.74391 14232 ft 397 kts 94°
2026-04-25 14:00 56.15725 42.79318 13984 ft 396 kts 94°
2026-04-25 14:00 56.15438 42.84219 13739 ft 394 kts 94°
2026-04-25 14:01 56.15151 42.89099 13497 ft 392 kts 94°
2026-04-25 14:01 56.14865 42.93947 13231 ft 390 kts 94°
2026-04-25 14:01 56.14579 42.98715 12952 ft 388 kts 94°
2026-04-25 14:01 56.14287 43.03515 12667 ft 386 kts 94°
2026-04-25 14:02 56.13993 43.08290 12396 ft 384 kts 94°
2026-04-25 14:02 56.13700 43.13048 12126 ft 382 kts 94°
2026-04-25 14:02 56.13442 43.17774 11860 ft 379 kts 90°
2026-04-25 14:02 56.13452 43.20897 11688 ft 376 kts 84°
2026-04-25 14:03 56.14023 43.27032 11340 ft 370 kts 71°
2026-04-25 14:03 56.14762 43.31439 11077 ft 368 kts 70°
2026-04-25 14:03 56.15496 43.35825 10810 ft 366 kts 70°
2026-04-25 14:03 56.16223 43.40201 10563 ft 365 kts 71°
2026-04-25 14:04 56.16940 43.44559 10338 ft 363 kts 71°
2026-04-25 14:04 56.17650 43.48891 10079 ft 360 kts 71°
2026-04-25 14:04 56.18351 43.53190 9828 ft 358 kts 71°
2026-04-25 14:04 56.19045 43.57464 9593 ft 352 kts 71°
2026-04-25 14:05 56.19708 43.61559 9455 ft 339 kts 71°
2026-04-25 14:05 56.20353 43.65556 9311 ft 327 kts 71°
2026-04-25 14:05 56.20977 43.69416 9175 ft 315 kts 71°
2026-04-25 14:05 56.21578 43.73142 9024 ft 304 kts 71°
2026-04-25 14:06 56.22207 43.76693 8893 ft 293 kts 64°
2026-04-25 14:06 56.23136 43.79904 8752 ft 287 kts 53°
2026-04-25 14:06 56.24251 43.82857 8618 ft 285 kts 52°
2026-04-25 14:06 56.25354 43.85777 8449 ft 285 kts 52°
2026-04-25 14:07 56.26458 43.88733 8321 ft 284 kts 53°
2026-04-25 14:07 56.27555 43.91693 8186 ft 284 kts 53°
2026-04-25 14:07 56.28652 43.94650 7967 ft 285 kts 53°
2026-04-25 14:07 56.29754 43.97618 7562 ft 284 kts 53°
2026-04-25 14:08 56.30877 44.00543 7150 ft 281 kts 47°
2026-04-25 14:08 56.32323 44.02837 6738 ft 274 kts 27°
2026-04-25 14:08 56.34037 44.04100 6382 ft 265 kts
2026-04-25 14:08 56.35850 44.04333 6076 ft 260 kts 351°
2026-04-25 14:09 56.37626 44.03760 5614 ft 259 kts 345°
2026-04-25 14:09 56.39388 44.03117 5188 ft 258 kts 345°
2026-04-25 14:09 56.41047 44.01985 4761 ft 253 kts 324°
2026-04-25 14:09 56.41911 44.00595 4502 ft 250 kts 308°
2026-04-25 14:10 56.42809 43.96832 3938 ft 249 kts 276°
2026-04-25 14:10 56.42621 43.93798 3776 ft 241 kts 253°
2026-04-25 14:10 56.41986 43.91047 3659 ft 231 kts 250°
2026-04-25 14:10 56.41364 43.88464 3560 ft 217 kts 249°
2026-04-25 14:11 56.40591 43.86201 3436 ft 208 kts 230°
2026-04-25 14:11 56.39447 43.84766 3352 ft 195 kts 208°
2026-04-25 14:11 56.38187 43.84172 3162 ft 180 kts 197°
2026-04-25 14:11 56.37003 43.83740 2945 ft 166 kts 197°
2026-04-25 14:12 56.35898 43.83332 2703 ft 159 kts 197°
2026-04-25 14:12 56.34841 43.82941 2488 ft 155 kts 197°
2026-04-25 14:12 56.33785 43.82551 2271 ft 154 kts 197°
2026-04-25 14:12 56.32735 43.82163 2056 ft 153 kts 197°
2026-04-25 14:13 56.31705 43.81784 1844 ft 152 kts 197°
2026-04-25 14:13 56.30671 43.81404 1638 ft 151 kts 197°
2026-04-25 14:13 56.29637 43.81023 1418 ft 152 kts 197°
2026-04-25 14:13 56.28602 43.80643 1200 ft 151 kts 197°
2026-04-25 14:14 56.27578 43.80268 1002 ft 150 kts 196°
2026-04-25 14:14 56.26556 43.79903 793 ft 148 kts 197°
2026-04-25 14:14 56.25543 43.79527 586 ft 148 kts 197°
2026-04-25 14:14 56.24552 43.79153 405 ft 147 kts 194°
2026-04-25 14:15 56.23554 43.78786 274 ft 146 kts 192°
2026-04-25 14:15 56.23223 43.78666 270 ft 139 kts 192°
2026-04-25 14:15 56.22188 43.78288 266 ft 37 kts 191°
2026-04-25 14:15 56.22034 43.78232 267 ft 17 kts 191°
2026-04-25 14:16 56.21975 43.78221 266 ft 7 kts 166°
2026-04-25 14:16 56.21950 43.78272 266 ft 5 kts 110°
2026-04-25 14:16 56.21944 43.78317 267 ft 3 kts 102°
2026-04-25 14:16 56.21936 43.78378 267 ft 7 kts 102°
2026-04-25 14:17 56.21924 43.78480 266 ft 8 kts 102°
2026-04-25 14:17 56.21914 43.78608 266 ft 12 kts 84°
2026-04-25 14:17 56.21950 43.78748 266 ft 9 kts 77°
2026-04-25 14:17 56.21949 43.78799 266 ft 2 kts 99°
2026-04-25 14:18 56.21946 43.78824 266 ft 0 kts 100°
2026-04-25 14:21 56.24271 43.79044 356 ft 147 kts 193°
2026-04-25 14:21 56.23275 43.78687 269 ft 140 kts 192°
2026-04-25 14:21 56.22599 43.78437 265 ft 95 kts 191°